{"data":{"norad_id":55327,"epoch":"2026-09-20T01:09:45.095040Z","epoch_age_seconds":53454,"freshness":"FRESH","line1":"1 55327U 23011D   26263.04843860  .00003351  00000+0  14490-3 0  9993","line2":"2 55327  40.4977 156.9256 0003749 304.3234  55.7221 15.23644629202324","mean_motion":15.23644629,"eccentricity":0.0003749,"inclination_deg":40.4977,"raan_deg":156.9256,"arg_perigee_deg":304.3234,"mean_anomaly_deg":55.7221,"bstar":0.0001449,"rev_number":20232,"period_min":94.510227161376,"perigee_km":492.28168289093,"apogee_km":497.43505481849,"semimajor_km":6872.9953688547,"source":"CELESTRAK","updated_at":"2026-09-20T09:00:47.451736Z"}}